Location: Newark
(43.4306°N, 0.3089°E)
Time: 02:43:51
(UTC+00:00)

Vanguard 1 Rocket - Pass Details

Date: 25 August 2019
Orbit: 652 x 4225 km, 34.3° (Epoch: 15 September)

Event Time Altitude Azimuth Distance (km) Brightness Sun altitude
Exits shadow 01:51:18 11° 114° (ESE) 2,203 9.4 -30.1°
Drops below altitude 10° 01:51:34 10° 112° (ESE) 2,290 9.5 -30.1°
Sets 01:54:51 0° 98° (E) 3,522 10.7 -29.8°
